Dewpoint
47 47 48 48 48 48 48 49 49 48 48 48 47 49 49 50 49 28 15 22 34 40 48 36 35 27 22 21 19 19 12 12 12 10 9 9 16 19 22 24 23 24 31 33 46
49 49 49 49 49 48 48 48 49 48 47 47 48 48 50 50 41 23 40 43 37 46 36 31 31 25 20 19 17 16 12 11 13 11 9 10 14 18 19 19 20 23 26 33 48
49 48 48 47 45 45 45 46 46 45 45 47 48 48 49 49 33 18 42 48 50 47 35 29 27 23 19 16 15 15 13 12 13 12 12 12 12 14 15 18 20 21 24 30 39
48 47 46 46 46 46 46 47 45 44 44 45 47 48 49 43 12 28 34 46 49 42 34 28 25 22 19 16 17 16 16 15 15 14 13 13 15 13 14 16 18 20 25 36 40
46 46 46 45 46 46 45 46 45 45 45 46 47 49 43 21 19 35 33 38 35 37 31 27 26 25 22 21 18 18 17 19 17 17 16 15 14 13 14 15 17 20 25 37 44
45 45 45 45 45 44 45 46 46 46 46 47 49 50 42 20 7 5 14 14 25 18 26 28 28 26 24 21 17 16 17 19 19 17 16 15 15 16 16 16 19 23 31 40 46
43 43 44 44 44 44 44 45 45 46 47 49 48 47 33 20 10 13 14 12 19 23 17 23 27 26 23 21 20 18 17 18 17 18 17 17 16 15 16 15 15 28 34 42 45
41 42 45 45 45 45 45 45 45 46 48 48 49 41 29 19 20 13 11 9 11 13 15 13 6 7 20 23 23 22 20 18 18 19 17 17 15 15 19 20 27 28 29 40 45
42 42 45 45 45 45 44 44 45 47 47 47 44 38 26 20 16 25 32 14 18 7 11 3 3 15 15 17 17 20 17 17 18 20 18 17 17 15 24 26 26 26 26 32 42
43 43 44 45 45 44 43 42 41 45 46 41 40 33 29 10 14 24 22 32 34 32 26 11 12 11 16 16 16 17 16 17 18 19 18 18 16 17 17 22 23 23 23 29 36
43 44 44 44 44 43 41 29 22 32 27 13 9 14 10 11 19 19 20 29 33 30 23 16 9 5 9 17 18 20 17 17 18 20 18 18 19 17 16 16 20 22 22 26 34
44 44 43 43 43 42 39 26 29 31 26 23 20 20 21 25 25 21 20 24 24 21 19 18 11 11 7 11 19 20 19 19 19 20 18 20 20 19 17 15 16 21 22 24 30
43 44 42 42 41 39 29 31 32 34 27 17 20 25 28 30 25 21 18 14 15 18 17 18 19 16 15 15 12 18 20 21 20 20 18 18 19 20 19 17 15 17 24 25 28
43 42 42 39 36 32 28 31 33 39 23 13 22 27 31 30 27 23 24 19 9 8 12 14 16 20 17 15 11 11 18 19 19 17 16 18 15 17 16 12 13 22 24 26 28
42 40 41 41 32 28 30 33 33 41 -4 7 22 29 21 26 22 22 26 22 14 7 14 13 18 20 19 17 18 13 16 17 17 17 18 18 15 16 18 16 13 18 21 21 30
41 42 41 33 37 32 34 35 37 23 -3 6 15 19 13 20 20 19 24 24 22 19 14 7 13 22 21 21 20 18 18 19 21 18 17 19 18 17 17 16 21 21 20 25 30
42 41 38 33 30 36 36 30 18 3 -7 -3 9 12 11 11 15 11 16 21 20 16 14 13 8 8 18 17 20 20 18 17 16 19 19 19 18 19 18 16 22 21 23 30 34
41 41 36 34 34 34 33 18 9 -1 1 12 11 8 6 11 8 9 5 15 21 21 17 11 7 7 8 13 14 19 19 20 12 14 19 21 16 17 20 20 21 24 25 28 34
39 35 36 36 35 34 27 9 -1 1 2 2 5 -4 -12 6 8 6 6 15 22 17 19 18 15 17 7 10 15 11 19 20 20 20 21 25 21 21 25 24 23 22 23 25 33
35 37 34 34 36 31 22 11 -0 -1 9 7 -3 -12 -11 -13 -2 -2 -0 15 24 21 18 23 19 18 16 12 14 15 14 16 18 17 14 14 15 18 22 22 22 22 23 23 28
39 34 32 32 35 26 17 11 4 3 9 4 -1 -3 -2 -3 -2 1 -2 4 1 16 12 13 23 19 21 19 13 13 14 15 15 14 13 16 18 21 18 23 23 23 26 24 28
37 29 36 34 28 25 19 12 13 7 7 8 5 2 3 2 2 1 -2 -5 -2 -0 2 13 21 21 18 20 24 24 13 14 16 14 14 17 18 23 22 22 25 27 26 29 29
33 30 37 35 23 21 18 14 12 13 8 6 5 4 4 4 3 2 1 -1 -1 9 17 24 14 13 14 16 20 23 23 20 17 16 13 13 18 21 21 23 23 26 26 27 30
33 26 33 34 30 25 22 17 13 15 15 14 12 11 7 6 7 6 6 9 16 19 25 24 18 14 11 15 24 22 24 25 24 22 20 17 14 16 19 20 21 23 24 25 30
33 25 27 25 25 26 21 20 14 11 16 16 14 13 11 9 8 8 10 10 12 15 17 22 19 14 11 11 12 15 15 15 17 20 21 22 20 21 22 21 22 23 23 24 27
31 26 23 20 19 18 20 19 20 12 15 14 14 12 16 9 8 5 5 9 12 12 12 16 20 17 13 13 12 12 12 11 10 12 16 18 19 21 22 23 25 25 23 23 22
35 28 27 25 20 19 18 16 16 15 17 18 17 20 18 18 24 29 32 30 29 30 25 30 23 18 18 13 11 13 12 9 6 4 7 12 17 19 24 23 23 24 24 22 25
Wind_Speed
14 15 16 16 17 18 19 20 21 23 24 23 25 27 29 32 36 22 20 13 3 4 6 14 16 16 17 19 19 11 20 22 22 16 13 7 7 15 8 16 17 14 13 13 3
13 15 16 18 19 19 20 21 22 24 24 25 25 25 28 29 31 26 4 2 2 3 14 19 19 18 20 18 18 20 19 23 21 12 15 14 9 13 17 19 20 18 17 18 9
14 15 16 18 20 20 20 21 23 26 25 25 25 25 25 29 15 1 8 7 7 9 19 16 18 18 22 21 22 22 27 24 22 11 14 18 17 18 19 20 22 19 17 14 5
15 16 17 19 21 22 23 22 24 25 25 25 27 23 23 12 8 8 10 7 8 12 11 16 16 19 23 24 23 25 26 23 23 24 17 20 20 24 23 22 22 18 19 9 10
14 17 18 19 22 23 24 24 26 26 27 26 22 17 11 9 20 9 5 6 9 12 14 14 18 19 25 23 24 25 24 23 25 19 23 22 23 27 27 23 23 21 17 10 12
13 17 19 20 23 26 26 27 27 27 28 27 17 7 9 16 5 5 7 9 14 17 19 20 18 17 24 24 26 20 20 21 23 26 23 23 24 24 28 25 19 15 15 13 11
14 18 20 22 23 26 28 29 28 28 27 20 14 10 12 25 9 12 10 11 12 13 18 17 16 19 14 22 25 24 25 27 26 25 26 23 27 29 30 24 16 13 14 12 12
12 16 18 20 22 25 29 31 29 27 16 10 6 10 10 6 9 14 15 14 16 15 12 10 10 20 23 24 27 20 22 28 23 28 25 23 26 23 5 10 14 18 13 13 12
12 12 16 19 21 26 31 35 30 12 7 5 7 7 9 2 6 7 5 7 9 15 18 19 16 20 20 24 28 25 29 27 23 18 15 15 19 20 8 11 15 16 15 14 13
13 9 14 18 22 26 33 36 16 7 11 11 10 7 9 2 12 12 14 8 8 5 7 13 13 20 25 24 30 30 28 27 26 22 17 19 25 22 22 18 17 18 15 12 12
10 10 13 16 22 27 25 22 4 8 5 11 20 22 27 20 17 13 8 9 11 9 16 18 19 27 28 28 30 32 32 29 21 15 13 18 22 21 20 23 20 19 16 14 11
9 10 13 15 21 27 20 7 7 6 16 20 28 25 23 15 9 11 12 9 18 22 17 15 30 21 26 30 31 32 34 33 25 25 19 20 23 26 25 23 24 23 17 14 12
8 8 11 15 22 15 7 6 6 10 10 12 11 9 2 8 6 4 9 18 23 21 23 27 25 17 23 25 29 32 33 30 29 25 27 19 28 27 27 29 26 26 16 17 12
7 5 9 17 14 8 4 6 9 6 8 7 8 7 8 5 5 7 4 10 22 27 27 28 27 30 16 19 26 30 25 26 28 27 28 23 32 23 17 16 21 20 22 20 16
6 4 6 7 15 9 7 9 9 2 8 6 8 6 4 7 6 10 3 7 17 22 15 25 18 23 30 27 20 26 20 20 22 26 25 28 25 20 19 21 23 17 20 19 14
10 6 5 15 12 10 8 12 4 8 15 6 4 5 7 10 6 3 7 6 7 13 23 31 21 15 15 21 25 20 17 20 21 21 28 25 27 24 23 19 15 12 6 6 13
11 7 9 15 12 4 9 8 9 10 4 9 4 4 6 6 8 7 9 13 13 12 18 22 30 29 21 17 15 17 19 18 19 22 23 22 22 23 14 18 7 8 7 12 12
10 8 14 16 12 5 9 11 15 8 15 7 4 8 12 2 10 9 13 15 11 11 18 19 16 21 29 29 21 22 24 19 18 16 16 21 16 21 18 22 19 13 6 9 12
9 15 17 17 11 10 12 20 13 16 13 8 9 13 18 12 7 5 8 13 4 5 12 7 13 3 15 28 24 24 28 28 29 25 18 9 12 18 5 9 10 9 13 12 14
16 12 19 13 9 12 16 29 18 9 3 6 13 10 15 15 11 13 13 4 1 3 9 2 10 6 3 12 22 27 18 21 24 23 27 23 23 14 13 12 13 12 10 13 13
10 7 3 15 13 15 23 23 17 10 6 10 13 17 11 15 8 14 8 4 5 3 11 14 11 11 3 12 15 18 27 22 19 23 24 20 16 11 10 12 5 9 10 9 7
6 8 9 15 16 13 23 17 6 10 10 14 10 16 15 15 16 16 20 17 7 14 15 11 7 15 17 14 7 13 21 29 21 22 18 23 23 3 4 3 3 12 7 2 6
6 13 5 14 14 19 16 16 14 11 13 11 13 14 17 17 16 19 23 24 19 11 7 8 10 14 18 20 19 12 16 15 17 22 28 23 15 15 24 11 7 10 17 5 2
6 7 6 12 16 17 17 18 17 11 14 16 13 11 17 19 21 17 19 9 7 12 7 6 13 16 20 9 9 7 12 10 12 17 19 24 24 23 17 15 15 12 14 20 6
9 11 7 9 19 21 20 10 18 18 13 9 14 17 17 18 22 23 21 21 19 16 19 15 20 20 21 29 21 17 20 18 20 20 20 20 20 18 16 15 18 21 19 21 10
6 6 10 16 15 20 23 25 20 14 12 18 19 14 12 20 21 20 20 17 20 16 23 20 21 20 24 23 25 28 28 27 27 24 25 24 26 21 24 27 33 24 21 20 21
6 13 9 11 21 19 18 22 23 18 14 17 15 11 13 14 10 12 18 15 16 15 13 3 11 15 19 19 25 28 29 30 32 30 26 28 25 20 21 25 28 34 29 26 21
Wind_Direction
357 352 349 345 341 338 337 334 329 328 328 327 325 325 323 318 314 294 277 278 80 164 253 201 209 221 223 232 230 251 260 258 266 265 275 255 213 260 272 278 280 267 254 284 82
344 343 342 339 338 335 333 332 325 324 325 323 323 323 319 319 312 285 29 133 186 210 219 209 212 211 219 228 224 231 242 250 275 313 298 279 231 259 271 269 270 266 255 240 176
356 349 344 338 333 331 331 328 324 323 323 321 320 320 317 315 295 138 81 96 176 207 237 228 232 220 232 224 226 228 244 266 283 270 279 279 269 274 264 272 273 277 325 319 210
347 343 342 337 332 330 329 325 323 321 319 317 316 317 311 297 286 112 128 137 175 192 241 235 237 236 238 238 231 242 249 260 270 285 268 264 274 270 268 272 283 286 288 310 289
343 340 339 336 331 328 326 322 319 319 317 312 310 310 312 257 260 127 126 178 208 211 230 227 233 236 245 249 248 240 250 263 272 264 267 270 265 272 273 278 280 283 298 275 266
344 339 336 333 331 327 324 320 318 318 314 309 303 291 264 263 316 335 319 273 250 225 232 236 240 256 263 265 263 262 259 256 267 264 261 258 264 267 267 266 258 263 279 265 244
338 334 332 332 329 324 321 316 315 312 308 299 287 228 256 248 312 302 287 281 278 248 242 234 252 262 256 256 263 267 266 269 257 260 258 260 262 260 263 257 262 260 256 247 234
324 326 325 325 325 323 317 311 309 306 293 294 240 223 258 302 311 285 271 260 251 267 267 282 273 267 260 267 275 266 258 261 259 248 251 235 258 273 210 222 237 254 252 226 236
305 317 318 323 325 320 314 308 303 284 259 220 232 231 273 131 248 334 306 263 276 244 251 254 249 250 245 243 255 254 254 254 257 223 248 214 254 271 172 228 253 262 260 237 211
289 307 321 327 324 320 314 300 281 261 226 234 252 248 250 3 309 308 276 259 261 223 224 217 222 235 227 233 236 239 245 243 254 266 209 253 256 250 263 233 237 259 268 253 229
298 305 318 330 323 318 318 309 288 204 256 274 279 278 285 297 301 269 248 226 229 221 234 198 219 225 236 230 249 263 267 261 279 256 263 255 263 268 264 264 260 250 256 249 231
284 299 318 332 317 313 297 9 41 334 298 274 264 267 268 272 283 265 250 233 219 237 227 234 239 240 244 240 239 247 258 262 266 273 268 254 263 273 266 263 258 264 268 241 238
284 302 320 326 313 294 330 30 340 330 269 290 234 251 223 201 249 294 210 230 243 242 240 237 249 225 233 259 245 248 251 260 263 265 271 270 265 264 261 253 253 256 260 267 242
265 291 321 329 289 338 275 355 342 335 281 171 195 184 185 222 241 221 211 236 236 245 253 258 253 267 228 235 256 254 252 260 262 263 261 253 265 270 260 264 231 233 230 231 240
245 268 309 306 301 289 7 330 323 277 281 109 147 110 186 232 327 169 201 216 245 246 234 243 234 252 243 229 247 263 273 258 262 254 262 256 260 258 259 258 251 244 245 243 211
252 264 284 277 244 265 318 308 245 242 244 161 160 201 235 208 223 284 213 216 273 257 248 251 253 255 264 259 239 255 265 252 256 249 250 248 251 254 252 239 228 242 224 274 189
250 253 269 277 258 359 299 262 238 238 97 187 199 226 255 228 229 256 239 212 238 247 239 239 242 243 247 249 231 244 232 248 233 230 242 243 231 241 252 251 228 222 236 185 185
250 264 252 252 253 268 266 217 229 266 243 124 267 267 248 192 219 269 262 240 202 276 272 270 258 218 220 227 222 214 216 244 236 243 272 269 234 249 235 243 257 238 230 233 191
271 254 250 241 231 232 233 217 229 242 269 250 270 262 255 211 258 271 237 284 36 355 277 308 253 45 222 223 227 227 220 225 254 276 266 250 250 268 183 237 246 212 219 211 199
258 259 249 225 192 219 225 229 239 267 291 255 261 283 271 260 211 242 263 129 202 246 337 312 280 237 127 221 224 237 248 220 227 246 250 256 253 239 204 210 236 233 222 230 198
246 244 185 180 190 218 222 228 233 234 241 252 260 257 259 263 247 262 254 255 277 295 331 298 262 250 255 229 219 211 237 251 246 230 241 253 268 341 206 161 287 311 319 246 211
249 236 157 164 195 217 231 230 297 246 233 249 267 266 264 263 256 250 259 262 300 301 299 294 291 259 254 271 304 306 226 225 236 241 244 247 254 328 316 117 231 310 313 353 276
230 224 191 199 214 218 237 242 222 242 241 240 240 245 248 250 254 253 261 267 273 274 325 19 239 256 246 242 235 247 240 245 236 248 255 257 247 274 223 265 302 307 304 318 212
192 220 202 206 249 268 240 225 231 203 260 263 254 261 253 249 250 256 266 265 260 254 45 318 260 270 265 355 334 249 246 256 258 248 246 245 256 254 272 279 289 286 290 300 199
202 218 215 194 226 244 262 255 239 224 210 245 236 242 251 254 252 247 249 252 251 243 259 238 251 253 258 279 280 269 272 261 257 258 255 263 277 287 300 297 282 279 283 291 282
170 213 231 256 246 221 229 247 244 247 232 223 232 250 252 239 254 258 255 246 264 245 237 240 254 262 262 264 274 278 269 260 257 259 262 262 263 272 274 274 280 278 281 276 273
214 263 267 260 239 241 233 232 241 254 244 248 256 267 267 267 298 301 303 284 271 278 255 308 241 243 249 247 255 255 253 260 265 260 252 250 256 272 288 277 256 268 269 272 276